Regional Weather Roundup
Issued by NWS

Home | Current Version | Previous Version | Graphics & Text | Print | Product List | Glossary On
Versions: 1 2 3 4 5 6 7 8 9 10 11 12 13 14 15 16 17 18 19 20 21 22 23 24 25 26 27 28 29 30 31 32 33 34 35 36 37 38 39 40 41 42 43 44 45 46 47 48 49 50
000
ASUS43 KOAX 201710
RWRNE

WEATHER ROUNDUP FOR NEBRASKA
NATIONAL WEATHER SERVICE OMAHA NE
1200 PM CDT WED AUG 20 2014

NOTES: SATELLITE DATA IS BEING USED TO AUGMENT CLOUD COVER ABOVE
       12000 FEET.
       "FAIR" INDICATES FEW OR NO CLOUDS BELOW 12,000 FEET WITH NO
       SIGNIFICANT WEATHER AND/OR OBSTRUCTIONS TO VISIBILITY.

  * THESE STATIONS DO NOT REPORT WEATHER SUCH AS RAIN...SNOW OR FOG.

NEZ001>004-019>022-054>056-201800-
NEBRASKA PANHANDLE

CITY           SKY/WX    TMP DP  RH WIND       PRES   REMARKS
SCOTTSBLUFF    SUNNY     83  55  38 W10       29.86R
ALLIANCE       PTSUNNY   82  52  35 W12       29.84S
CHADRON        MOSUNNY   84  53  34 CALM      29.77S
KIMBALL        SUNNY     83  48  29 W13       29.91R
SIDNEY         MOSUNNY   86  52  30 N8        29.89S
$$

NEZ057>060-069>072-079>082-201800-
SOUTHWEST NEBRASKA

CITY           SKY/WX    TMP DP  RH WIND       PRES   REMARKS
NORTH PLATTE   CLOUDY    76  66  71 W6        29.79R
IMPERIAL       CLOUDY    77  64  64 N9        29.82S
LEXINGTON      CLOUDY    84  71  63 S8        29.79R
MCCOOK         MOSUNNY   90  63  40 S8        29.78S HX  91
OGALLALA       CLOUDY    76  64  67 CALM      29.82S
$$

NEZ005>010-023>029-035>040-094-201800-
NORTH CENTRAL NEBRASKA

CITY           SKY/WX    TMP DP  RH WIND       PRES   REMARKS
VALENTINE      CLOUDY    79  64  60 E3        29.75F
AINSWORTH      CLOUDY    78  67  69 E3        29.76F
BROKEN BOW     CLOUDY    78  68  71 SE8       29.79R
O`NEILL        MOSUNNY   79  70  74 SE17      29.78S
ORD            LGT RAIN  75  66  73 SE13      29.77S
THEDFORD       CLOUDY    78  64  61 CALM      29.79S
$$

NEZ041-046>049-061>064-073>077-083>087-201800-
SOUTH CENTRAL NEBRASKA

CITY           SKY/WX    TMP DP  RH WIND       PRES   REMARKS
GRAND ISLAND   CLOUDY    80  70  71 SE12      29.80F
AURORA         CLOUDY    79  72  77 SE7       29.81F
HASTINGS       PTSUNNY   84  67  56 S13       29.80S
HEBRON         MOSUNNY   86  68  55 S8        29.82S
HOLDREGE       PTSUNNY   86  67  52 S13       29.78F
KEARNEY *      PTSUNNY   82  72  69 SE9       29.80R
YORK           CLOUDY    79 N/A N/A S12       29.82F
$$

NEZ011>018-030>034-042>045-201800-
NORTHEAST NEBRASKA

CITY           SKY/WX    TMP DP  RH WIND       PRES   REMARKS
NORFOLK        CLOUDY    77  68  73 SE14      29.81F
ALBION         PTSUNNY   75  67  75 SE10      29.80F
BLAIR          CLOUDY    75  69  81 SE7       29.85S
COLUMBUS *     CLOUDY    57 N/A N/A SE12      29.83R
FREMONT        LGT RAIN  76  68  76 SE10      29.84F
TEKAMAH        LGT RAIN  74  68  81 SE10      29.84R
WAYNE          CLOUDY    72  69  93 SE10      29.81F THUNDER
$$

NEZ050>053-065>068-078-088>093-201800-
SOUTHEAST NEBRASKA

CITY           SKY/WX    TMP DP  RH WIND       PRES   REMARKS
LINCOLN        PTSUNNY   87  68  52 S10       29.84R HX  90
OMAHA EPPLEY   CLOUDY    76  68  76 SE10      29.85S
BEATRICE       MOSUNNY   87  71  58 S8        29.84S HX  93
FALLS CITY     SUNNY     91  72  53 S7        29.86R HX  98
NEBRASKA CITY  MOSUNNY   84  71  66 SE8       29.87S
PLATTSMOUTH    PTSUNNY   84  70  64 SE9       29.86S
$$

NEZ044-045-051>053-067-201800-
OMAHA AREA

CITY           SKY/WX    TMP DP  RH WIND       PRES   REMARKS
OMAHA EPPLEY   CLOUDY    76  68  76 SE10      29.85S
BLAIR          CLOUDY    75  69  81 SE7       29.85S
FREMONT        LGT RAIN  76  68  76 SE10      29.84F
MILLARD        CLOUDY    79  71  76 SE12      29.84S
OFFUTT AFB     CLOUDY    81  74  80 SE14      29.85S
PLATTSMOUTH    PTSUNNY   84  70  64 SE9       29.86S
WAHOO          FAIR      77  70  79 SE6       29.84S
$$



USA.gov is the U.S. government's official web portal to all federal, state and local government web resources and services.